Theta_e
341 333 333 332 330 329 329 332 334 332 333 329 330 333 335 334 333 333 334 332 330 331
336 330 330 331 330 329 329 331 331 331 331 329 330 335 334 333 333 333 333 333 332 330
333 330 329 329 329 327 327 330 331 331 330 330 330 333 333 331 332 332 332 331 331 332
330 329 329 330 330 328 327 328 329 329 329 330 330 332 330 330 331 331 332 332 331 331
330 331 330 330 330 329 328 328 329 330 330 331 332 332 330 330 333 332 331 331 331 331
330 331 331 331 330 329 328 328 328 330 330 329 329 328 328 330 331 331 330 331 330 330
331 332 332 332 330 330 329 328 328 329 328 327 327 327 329 330 330 329 330 331 330 329
334 334 333 332 332 331 329 329 329 328 327 328 327 327 329 330 329 330 330 330 329 328
336 335 334 334 333 330 329 328 328 327 328 327 328 325 326 331 330 330 329 327 326 324
336 333 331 332 333 330 328 328 328 328 328 328 329 322 323 327 330 327 325 324 323 323
335 333 331 330 329 331 328 327 328 328 328 328 328 321 320 324 330 327 325 323 322 322
336 334 333 332 329 330 329 329 330 330 329 327 329 320 319 322 327 326 324 322 320 319
338 334 330 332 331 330 331 330 332 329 328 324 327 319 318 320 325 323 320 319 320 316
338 336 333 330 329 328 330 330 328 325 323 327 327 327 317 313 322 320 318 317 317 316
Wind_Speed
9 6 5 6 4 4 4 4 5 5 4 5 5 4 3 2 3 3 3 5 4 3
8 8 8 7 6 4 4 4 6 6 6 5 4 4 3 2 3 4 4 5 5 4
11 10 8 7 8 7 6 5 6 5 5 5 5 4 4 3 3 3 3 3 4 5
11 9 9 10 9 8 7 7 7 7 6 6 6 5 4 4 4 5 4 4 5 7
11 12 11 10 10 8 9 6 8 7 6 6 6 5 5 5 4 4 5 6 5 8
12 13 13 11 9 9 9 8 7 7 7 7 7 6 6 5 5 6 6 6 6 7
16 17 14 11 11 10 10 8 8 7 7 7 6 7 6 6 5 6 7 7 6 6
18 15 13 13 10 9 9 9 9 7 6 6 6 6 6 6 6 7 7 6 5 5
13 16 17 10 11 10 10 9 11 9 7 8 6 8 10 7 6 7 6 5 4 4
12 10 10 2 8 10 10 10 10 8 8 9 8 6 8 9 5 5 5 5 4 5
14 15 14 13 11 10 5 9 6 7 9 8 6 8 9 9 5 6 6 4 4 5
15 16 16 16 14 11 3 4 3 2 3 5 9 11 10 5 4 6 5 4 3 4
13 12 11 6 6 5 5 5 4 4 4 3 12 7 7 7 3 4 3 3 4 7
5 5 6 6 5 6 7 7 6 7 5 9 8 15 12 9 4 3 2 4 3 3
Wind_Direction
180 184 189 179 179 176 182 195 172 178 180 198 187 197 196 207 226 216 223 218 213 207
178 175 186 183 178 181 180 184 184 184 188 204 210 219 203 211 223 207 226 232 227 229
184 180 179 165 190 184 186 189 186 189 204 213 221 218 208 239 251 246 259 256 245 239
176 181 169 179 187 186 179 186 185 188 201 215 228 227 219 237 251 242 263 259 247 254
172 172 183 190 186 179 186 178 186 194 202 211 223 228 224 236 240 245 250 251 249 258
173 181 189 190 184 186 180 183 193 197 200 207 214 219 224 222 237 236 239 241 234 246
183 189 190 186 186 181 189 180 198 202 204 212 214 217 225 223 232 242 245 246 243 243
193 186 179 181 203 192 184 194 199 196 212 222 217 230 225 229 237 242 243 230 237 238
185 185 188 179 186 208 180 197 202 192 204 221 231 232 236 236 239 239 232 245 252 248
171 162 126 75 234 235 190 199 209 183 200 227 230 217 253 245 237 239 233 228 248 278
169 170 166 181 208 239 211 193 184 198 213 224 236 194 240 244 245 244 240 234 238 251
169 174 189 193 187 219 224 121 170 315 217 205 251 203 220 221 234 246 244 234 235 233
176 175 208 180 143 135 141 136 184 138 145 279 298 287 262 234 203 230 227 224 252 247
143 125 116 123 119 123 119 134 165 173 124 106 305 280 270 215 185 198 214 237 256 266